Regional Weather Roundup
Issued by NWS

Home | Current Version | Previous Version | Graphics & Text | Print | Product List | Glossary On
Versions: 1 2 3 4 5 6 7 8 9 10 11 12 13 14 15 16 17 18 19 20 21 22 23 24 25 26 27 28 29 30 31 32 33 34 35 36 37 38 39 40 41 42 43 44 45 46 47 48 49 50
000
ASUS43 KFSD 271002
RWRSD

WEATHER ROUNDUP FOR SOUTH DAKOTA
NATIONAL WEATHER SERVICE SIOUX FALLS SD
400 AM CST TUE JAN 27 2015

NOTE: "FAIR" INDICATES FEW OR NO CLOUDS BELOW 12,000 FEET WITH NO
SIGNIFICANT WEATHER AND/OR OBSTRUCTIONS TO VISIBILITY.


SDZ001>005-009-010-012>017-271100-
NORTHWEST AND NORTH CENTRAL SOUTH DAKOTA

CITY           SKY/WX    TMP DP  RH WIND       PRES   REMARKS
BUFFALO          N/A     43  30  60 W12       29.85S
FAITH            N/A     36  29  75 S15       29.91F
MOBRIDGE       CLEAR     33  30  88 SE10      29.92F WCI  25
$$

SDZ012>016-024>037-041>051-057-063-072>074-271100-
SOUTHWEST AND SOUTH CENTRAL SOUTH DAKOTA

CITY           SKY/WX    TMP DP  RH WIND       PRES   REMARKS
RAPID CTY ARPT CLEAR     44  26  49 W9        29.95F
PIERRE         CLEAR     31  27  85 SE6       29.94F WCI  25
CUSTER         CLEAR     43  23  45 W7        30.06F
ELLSWORTH AFB  CLEAR     44  25  46 W7        29.94F
PHILIP         CLEAR     29  25  85 CALM      29.93F
PINE RIDGE     CLEAR     38  27  64 W7        30.02F
WINNER         FAIR      41  32  70 S12       29.97F
$$

SDZ004>011-016>023-039-040-271100-
NORTHEAST SOUTH DAKOTA

CITY           SKY/WX    TMP DP  RH WIND       PRES   REMARKS
ABERDEEN       CLEAR     26  24  92 CALM      30.03R
WATERTOWN      CLEAR     26  25  96 E3        30.01F
SISSETON         N/A     28  28 100 S7        30.04S WCI  21
$$

SDZ017-020-022-023-036>040-048>070-271100-
SOUTHEAST SOUTH DAKOTA

CITY           SKY/WX    TMP DP  RH WIND       PRES   REMARKS
SIOUX FALLS    CLEAR     26  24  92 CALM      30.04F
HURON          CLEAR     26  25  96 SE3       30.02F
MITCHELL       CLEAR     29  28  96 S3        30.04F
YANKTON        CLEAR     30  28  93 CALM      30.06F
$$

ABBREVIATIONS USED IN REMARKS
   TC - TEMPERATURE IN CELSIUS
  WCI - WIND CHILL INDEX
   HX - HEAT INDEX
  VSB - VISIBILITY




USA.gov is the U.S. government's official web portal to all federal, state and local government web resources and services.